EJU48FE LSGG-LFPO

Flight info

Callsign EJU48FE
Flight time 0h 46m
Altitude 26000
Route DIPIR T37 IBABA DCT TUTAX
Aircraft A320/M-SDE3FGHIRWY/LB1

Departure

Time 2026-05-07 13:53
Airport Geneva International Airport (LSGG)

Arrival

Time 2026-05-07 14:39
Airport Paris-Orly Airport (LFPO)
Time Latitude Longitude Altitude Speed Heading
2026-05-07 13:38 46.23223 6.10498 1393 ft 0 kts 270°
2026-05-07 13:46 46.23223 6.10484 1402 ft 7 kts 271°
2026-05-07 13:47 46.23277 6.10469 1395 ft 12 kts 43°
2026-05-07 13:47 46.23356 6.10581 1399 ft 19 kts 45°
2026-05-07 13:47 46.23459 6.10721 1398 ft 21 kts 47°
2026-05-07 13:47 46.23563 6.10876 1389 ft 22 kts 45°
2026-05-07 13:48 46.23669 6.11031 1388 ft 22 kts 45°
2026-05-07 13:48 46.23789 6.11203 1379 ft 27 kts 45°
2026-05-07 13:48 46.23922 6.11394 1375 ft 27 kts 44°
2026-05-07 13:48 46.24059 6.11596 1369 ft 29 kts 47°
2026-05-07 13:49 46.24204 6.11816 1363 ft 28 kts 46°
2026-05-07 13:49 46.24303 6.11960 1363 ft 20 kts 45°
2026-05-07 13:49 46.24402 6.12104 1369 ft 20 kts 45°
2026-05-07 13:49 46.24505 6.12255 1372 ft 22 kts 49°
2026-05-07 13:50 46.24624 6.12428 1368 ft 27 kts 45°
2026-05-07 13:50 46.24769 6.12640 1362 ft 31 kts 41°
2026-05-07 13:50 46.24915 6.12720 1366 ft 18 kts 16°
2026-05-07 13:50 46.24978 6.12714 1369 ft 7 kts 322°
2026-05-07 13:51 46.24996 6.12674 1371 ft 5 kts 294°
2026-05-07 13:51 46.24982 6.12623 1372 ft 0 kts 224°
2026-05-07 13:51 46.24982 6.12622 1372 ft 0 kts 227°
2026-05-07 13:52 46.24981 6.12621 1372 ft 1 kts 227°
2026-05-07 13:52 46.24908 6.12508 1372 ft 40 kts 227°
2026-05-07 13:53 46.24518 6.11944 1372 ft 114 kts 225°
2026-05-07 13:53 46.23818 6.10920 1395 ft 169 kts 224°
2026-05-07 13:53 46.22990 6.09715 2066 ft 166 kts 226°
2026-05-07 13:53 46.22189 6.08532 2889 ft 166 kts 226°
2026-05-07 13:54 46.21328 6.07270 3349 ft 186 kts 227°
2026-05-07 13:54 46.20370 6.05861 3773 ft 210 kts 227°
2026-05-07 13:54 46.19276 6.04251 4208 ft 238 kts 227°
2026-05-07 13:54 46.18068 6.02465 4826 ft 259 kts 227°
2026-05-07 13:55 46.16783 6.00556 5666 ft 268 kts 226°
2026-05-07 13:55 46.15467 5.98615 6650 ft 272 kts 226°
2026-05-07 13:55 46.14219 5.96558 7638 ft 275 kts 237°
2026-05-07 13:55 46.13517 5.93974 8615 ft 282 kts 259°
2026-05-07 13:56 46.13541 5.91141 9581 ft 289 kts 280°
2026-05-07 13:56 46.14305 5.88438 10429 ft 296 kts 302°
2026-05-07 13:56 46.15774 5.86336 11307 ft 302 kts 326°
2026-05-07 13:56 46.17745 5.85151 11919 ft 320 kts 346°
2026-05-07 13:57 46.20014 5.84639 12279 ft 341 kts 350°
2026-05-07 13:57 46.22412 5.84163 12891 ft 352 kts 350°
2026-05-07 13:57 46.24857 5.83684 13706 ft 356 kts 350°
2026-05-07 13:57 46.27325 5.83185 14471 ft 359 kts 349°
2026-05-07 13:58 46.29808 5.82668 15202 ft 363 kts 349°
2026-05-07 13:58 46.32315 5.82135 15938 ft 366 kts 349°
2026-05-07 13:58 46.34846 5.81588 16638 ft 369 kts 349°
2026-05-07 13:58 46.37401 5.81031 17354 ft 373 kts 349°
2026-05-07 13:59 46.39937 5.80397 18049 ft 376 kts 343°
2026-05-07 13:59 46.42432 5.79122 18678 ft 377 kts 332°
2026-05-07 13:59 46.44739 5.77308 19306 ft 379 kts 328°
2026-05-07 13:59 46.47018 5.75458 19945 ft 381 kts 328°
2026-05-07 14:00 46.49343 5.73571 20590 ft 385 kts 328°
2026-05-07 14:00 46.51685 5.71675 21208 ft 388 kts 328°
2026-05-07 14:00 46.54057 5.69758 21824 ft 391 kts 329°
2026-05-07 14:00 46.56450 5.67823 22427 ft 395 kts 329°
2026-05-07 14:01 46.58860 5.65873 23006 ft 398 kts 329°
2026-05-07 14:01 46.61290 5.63900 23569 ft 402 kts 328°
2026-05-07 14:01 46.63741 5.61907 24030 ft 405 kts 328°
2026-05-07 14:01 46.66213 5.59893 24519 ft 407 kts 328°
2026-05-07 14:02 46.68693 5.57871 25002 ft 410 kts 328°
2026-05-07 14:02 46.71190 5.55852 25471 ft 412 kts 328°
2026-05-07 14:02 46.73702 5.53830 25900 ft 414 kts 328°
2026-05-07 14:02 46.76215 5.51796 26009 ft 411 kts 328°
2026-05-07 14:03 46.78683 5.49761 26036 ft 405 kts 328°
2026-05-07 14:03 46.81116 5.47718 26036 ft 403 kts 327°
2026-05-07 14:03 46.83531 5.45642 26033 ft 402 kts 324°
2026-05-07 14:03 46.85723 5.43147 26023 ft 398 kts 314°
2026-05-07 14:04 46.87558 5.40141 26025 ft 396 kts 304°
2026-05-07 14:04 46.88995 5.36725 26029 ft 394 kts 294°
2026-05-07 14:04 46.90029 5.33039 26033 ft 392 kts 289°
2026-05-07 14:04 46.90984 5.29291 26032 ft 393 kts 290°
2026-05-07 14:05 46.92222 5.25724 26030 ft 395 kts 300°
2026-05-07 14:05 46.93855 5.22555 26035 ft 397 kts 310°
2026-05-07 14:05 46.95857 5.19769 26021 ft 398 kts 316°
2026-05-07 14:05 46.97924 5.17058 26027 ft 398 kts 316°
2026-05-07 14:06 46.99983 5.14345 26025 ft 398 kts 315°
2026-05-07 14:06 47.02040 5.11622 26025 ft 399 kts 315°
2026-05-07 14:06 47.04095 5.08896 26020 ft 399 kts 315°
2026-05-07 14:06 47.06153 5.06163 26023 ft 399 kts 315°
2026-05-07 14:07 47.08208 5.03430 26022 ft 399 kts 315°
2026-05-07 14:07 47.10267 5.00688 26023 ft 399 kts 315°
2026-05-07 14:07 47.12322 4.97954 26022 ft 400 kts 315°
2026-05-07 14:07 47.14385 4.95204 26024 ft 400 kts 315°
2026-05-07 14:08 47.16443 4.92454 26024 ft 400 kts 315°
2026-05-07 14:08 47.18502 4.89697 26017 ft 400 kts 315°
2026-05-07 14:08 47.20556 4.86947 26022 ft 400 kts 315°
2026-05-07 14:08 47.22613 4.84187 26022 ft 399 kts 315°
2026-05-07 14:09 47.24665 4.81432 26023 ft 399 kts 315°
2026-05-07 14:09 47.26719 4.78673 26027 ft 400 kts 315°
2026-05-07 14:09 47.28771 4.75918 26023 ft 400 kts 315°
2026-05-07 14:09 47.30828 4.73152 26026 ft 400 kts 315°
2026-05-07 14:10 47.32880 4.70385 26025 ft 400 kts 315°
2026-05-07 14:10 47.34904 4.67650 26032 ft 400 kts 315°
2026-05-07 14:10 47.36954 4.64876 26030 ft 400 kts 315°
2026-05-07 14:10 47.39002 4.62106 26034 ft 400 kts 315°
2026-05-07 14:11 47.41056 4.59327 26030 ft 400 kts 315°
2026-05-07 14:11 47.43107 4.56552 26037 ft 400 kts 315°
2026-05-07 14:11 47.45156 4.53780 26035 ft 400 kts 315°
2026-05-07 14:11 47.47208 4.51000 26037 ft 400 kts 315°
2026-05-07 14:12 47.49254 4.48222 26033 ft 399 kts 315°
2026-05-07 14:12 47.51303 4.45438 26035 ft 399 kts 315°
2026-05-07 14:12 47.53341 4.42662 26034 ft 399 kts 315°
2026-05-07 14:12 47.55392 4.39864 26033 ft 399 kts 315°
2026-05-07 14:13 47.57434 4.37075 26034 ft 399 kts 315°
2026-05-07 14:13 47.59478 4.34279 26035 ft 400 kts 315°
2026-05-07 14:13 47.61520 4.31479 26038 ft 400 kts 315°
2026-05-07 14:13 47.63557 4.28684 26038 ft 399 kts 315°
2026-05-07 14:14 47.65466 4.25707 26037 ft 397 kts 307°
2026-05-07 14:14 47.67058 4.22376 26034 ft 396 kts 302°
2026-05-07 14:14 47.68597 4.18990 26035 ft 396 kts 302°
2026-05-07 14:14 47.70134 4.15601 26034 ft 396 kts 302°
2026-05-07 14:15 47.71674 4.12205 26034 ft 396 kts 302°
2026-05-07 14:15 47.73213 4.08812 26035 ft 396 kts 302°
2026-05-07 14:15 47.74764 4.05385 26050 ft 400 kts 302°
2026-05-07 14:15 47.76302 4.01989 25683 ft 393 kts 302°
2026-05-07 14:16 47.77820 3.98637 25149 ft 389 kts 302°
2026-05-07 14:16 47.79321 3.95321 24618 ft 386 kts 302°
2026-05-07 14:16 47.80817 3.92014 24094 ft 383 kts 302°
2026-05-07 14:16 47.82299 3.88736 23592 ft 380 kts 302°
2026-05-07 14:17 47.83770 3.85476 23015 ft 378 kts 302°
2026-05-07 14:17 47.85228 3.82235 22468 ft 375 kts 302°
2026-05-07 14:17 47.86668 3.79023 21949 ft 372 kts 302°
2026-05-07 14:17 47.88097 3.75827 21444 ft 369 kts 302°
2026-05-07 14:18 47.89512 3.72659 20936 ft 366 kts 302°
2026-05-07 14:18 47.90917 3.69514 20420 ft 364 kts 302°
2026-05-07 14:18 47.92317 3.66380 19932 ft 361 kts 302°
2026-05-07 14:18 47.93706 3.63275 19450 ft 359 kts 302°
2026-05-07 14:19 47.95082 3.60193 18973 ft 356 kts 302°
2026-05-07 14:19 47.96474 3.57143 18506 ft 355 kts 306°
2026-05-07 14:19 47.98108 3.54452 18008 ft 353 kts 313°
2026-05-07 14:19 47.99851 3.51812 17494 ft 351 kts 313°
2026-05-07 14:20 48.01536 3.49262 17004 ft 348 kts 313°
2026-05-07 14:20 48.03243 3.46669 16520 ft 346 kts 313°
2026-05-07 14:20 48.04926 3.44100 16059 ft 344 kts 313°
2026-05-07 14:20 48.06595 3.41549 15632 ft 341 kts 313°
2026-05-07 14:21 48.08247 3.39016 15191 ft 339 kts 313°
2026-05-07 14:21 48.09889 3.36494 14749 ft 337 kts 313°
2026-05-07 14:21 48.11521 3.33989 14317 ft 335 kts 313°
2026-05-07 14:21 48.13139 3.31506 13902 ft 333 kts 313°
2026-05-07 14:22 48.14744 3.29042 13433 ft 330 kts 313°
2026-05-07 14:22 48.16328 3.26605 13257 ft 319 kts 313°
2026-05-07 14:22 48.17839 3.24280 12934 ft 304 kts 313°
2026-05-07 14:22 48.19279 3.22067 12295 ft 298 kts 313°
2026-05-07 14:23 48.20712 3.19861 11937 ft 295 kts 312°
2026-05-07 14:23 48.22140 3.17664 11627 ft 294 kts 312°
2026-05-07 14:23 48.23566 3.15463 11329 ft 293 kts 312°
2026-05-07 14:23 48.24981 3.13278 11023 ft 292 kts 312°
2026-05-07 14:24 48.26396 3.11092 10719 ft 291 kts 312°
2026-05-07 14:24 48.27806 3.08916 10420 ft 290 kts 312°
2026-05-07 14:24 48.29212 3.06747 10115 ft 290 kts 312°
2026-05-07 14:24 48.30616 3.04582 9919 ft 289 kts 312°
2026-05-07 14:25 48.32019 3.02414 9789 ft 289 kts 312°
2026-05-07 14:25 48.33419 3.00244 9638 ft 289 kts 312°
2026-05-07 14:25 48.34817 2.98077 9493 ft 288 kts 313°
2026-05-07 14:25 48.36210 2.95918 9354 ft 287 kts 313°
2026-05-07 14:26 48.37595 2.93774 9212 ft 282 kts 313°
2026-05-07 14:26 48.38934 2.91697 9047 ft 274 kts 313°
2026-05-07 14:26 48.40250 2.89614 8949 ft 273 kts 308°
2026-05-07 14:26 48.40918 2.87978 8828 ft 270 kts 290°
2026-05-07 14:27 48.41457 2.85323 8648 ft 269 kts 283°
2026-05-07 14:27 48.41911 2.82552 8465 ft 269 kts 282°
2026-05-07 14:27 48.42340 2.79842 8286 ft 268 kts 282°
2026-05-07 14:27 48.42772 2.77081 8104 ft 267 kts 282°
2026-05-07 14:28 48.43197 2.74354 7923 ft 266 kts 282°
2026-05-07 14:28 48.43618 2.71640 7741 ft 266 kts 282°
2026-05-07 14:28 48.44037 2.68932 7567 ft 265 kts 282°
2026-05-07 14:28 48.44451 2.66236 7433 ft 264 kts 282°
2026-05-07 14:29 48.44863 2.63543 7299 ft 263 kts 282°
2026-05-07 14:29 48.45271 2.60860 7184 ft 263 kts 282°
2026-05-07 14:29 48.45676 2.58190 7055 ft 262 kts 282°
2026-05-07 14:29 48.46082 2.55502 6931 ft 262 kts 282°
2026-05-07 14:30 48.46483 2.52833 6807 ft 261 kts 282°
2026-05-07 14:30 48.46879 2.50165 6680 ft 260 kts 282°
2026-05-07 14:30 48.47273 2.47500 6558 ft 260 kts 282°
2026-05-07 14:30 48.47662 2.44852 6435 ft 259 kts 282°
2026-05-07 14:31 48.48049 2.42197 6304 ft 259 kts 282°
2026-05-07 14:31 48.48435 2.39549 6172 ft 258 kts 282°
2026-05-07 14:31 48.48818 2.36903 6038 ft 258 kts 282°
2026-05-07 14:31 48.49197 2.34267 5909 ft 257 kts 282°
2026-05-07 14:32 48.49574 2.31628 5777 ft 258 kts 282°
2026-05-07 14:32 48.49950 2.28990 5646 ft 257 kts 282°
2026-05-07 14:32 48.50325 2.26354 5516 ft 257 kts 283°
2026-05-07 14:32 48.51000 2.23884 5389 ft 256 kts 300°
2026-05-07 14:33 48.51913 2.21584 5259 ft 255 kts 302°
2026-05-07 14:33 48.52844 2.19305 5129 ft 255 kts 302°
2026-05-07 14:33 48.53775 2.17030 5003 ft 254 kts 302°
2026-05-07 14:33 48.54697 2.14767 4878 ft 249 kts 302°
2026-05-07 14:34 48.55599 2.12579 4730 ft 244 kts 306°
2026-05-07 14:34 48.56776 2.10771 4573 ft 241 kts 324°
2026-05-07 14:34 48.58293 2.09810 4344 ft 239 kts 348°
2026-05-07 14:34 48.59937 2.09431 4083 ft 238 kts 360°
2026-05-07 14:35 48.61555 2.09726 3835 ft 232 kts 11°
2026-05-07 14:35 48.63113 2.10257 3600 ft 227 kts 19°
2026-05-07 14:35 48.64464 2.11407 3373 ft 222 kts 41°
2026-05-07 14:35 48.65419 2.13197 3117 ft 219 kts 60°
2026-05-07 14:36 48.66139 2.15216 2829 ft 217 kts 61°
2026-05-07 14:36 48.66849 2.17215 2544 ft 213 kts 61°
2026-05-07 14:36 48.67537 2.19147 2268 ft 202 kts 61°
2026-05-07 14:36 48.68185 2.20965 1982 ft 191 kts 61°
2026-05-07 14:37 48.68789 2.22662 1747 ft 172 kts 61°
2026-05-07 14:37 48.69806 2.25523 1290 ft 142 kts 60°
2026-05-07 14:37 48.70263 2.26806 1100 ft 137 kts 60°
2026-05-07 14:38 48.70710 2.28063 920 ft 135 kts 60°
2026-05-07 14:38 48.71154 2.29310 746 ft 134 kts 60°
2026-05-07 14:38 48.71592 2.30555 560 ft 134 kts 60°
2026-05-07 14:38 48.72032 2.31794 341 ft 133 kts 60°
2026-05-07 14:39 48.72443 2.32937 302 ft 106 kts 62°
2026-05-07 14:39 48.72706 2.33693 301 ft 56 kts 62°
2026-05-07 14:39 48.72873 2.34165 298 ft 47 kts 62°
2026-05-07 14:39 48.72983 2.34507 298 ft 30 kts 72°
2026-05-07 14:40 48.73012 2.34774 297 ft 21 kts 82°
2026-05-07 14:40 48.73033 2.35001 296 ft 23 kts 82°
2026-05-07 14:40 48.73008 2.35239 299 ft 24 kts 118°
2026-05-07 14:40 48.72908 2.35352 299 ft 13 kts 121°
2026-05-07 14:41 48.72906 2.35489 299 ft 14 kts 95°
2026-05-07 14:41 48.72846 2.35561 300 ft 6 kts 164°
2026-05-07 14:41 48.72808 2.35579 300 ft 6 kts 157°
2026-05-07 14:41 48.72776 2.35668 301 ft 15 kts 86°
2026-05-07 14:42 48.72823 2.35745 298 ft 8 kts 15°
2026-05-07 14:42 48.72839 2.35752 296 ft 0 kts 15°